Content
SEND FEEDBACK

Daily
Averages
Monthly
Summary
United States of America

NEW CUMBERLAND, WEST VIRGINIA


Home > North America > United States > West Virginia
Elevation: 274 meters     Latitude: 40 30N     Longitude: 080 36W

WEATHER
 
SELECT A DAY
Number of Records: 197,599;   Date Range: 1/1/95 - 7/22/14
 
SHARE

PRINT THIS DATA

[ ← Previous Day ]
WEATHER ALMANAC - 31 JANUARY, 2013
[ Next Day → ]
[ °F ]   °C
Weather ElementAverageHighLow
Temperature-2.7 °C3.3 °C (12:51 am)-5.6 °C (11:51 pm)
Dewpoint-6.8 °C1.1 °C (12:51 am)-12.8 °C (3:51 pm)
Humidity73.7 %93 % (5:22 am)53 % (3:51 pm)
Barometer1004.1 hPa1011.9 hPa (9:51 pm)992.2 hPa (12:51 am)
Wind Speed27.7 km/h48.1 km/h (6:13 am)
Wind Gust68.6 km/h (1:51 am)
Weather ElementAverage
Visibility9.5 km
Wind DirectionWSW (263.4 °)

Weather ElementTotal
Precipitation1.27 mm
Heating Degree Days19.5 (Base 18.3)
Averaged from 41 records on 31 January, 2013
WEATHER CONDITIONS BREAKOUT
WIND DIRECTION BREAKOUT
WEATHER BY HOUR - 31 JANUARY, 2013
[ °F ]   °C
Local TimeTemperatureDewpointHumidityBarometerVisibilityWind DirectionWind SpeedGust SpeedPrecipitationEventsConditions
12:51 AM3.3 °C1.1 °C86 %992.2 hPa16.1 kmWest (270°)44.4 km/h59.2 km/h0.25 mmRainLight Rain
1:16 AM3 °C0 °C81 %992.6 hPa16.1 kmWest (260°)25.9 km/h46.3 km/h0 mmRainLight Rain
1:51 AM2.2 °C-0.6 °C82 %994.2 hPa8 kmWest (260°)31.5 km/h68.6 km/h0 mmRain-SnowLight Rain
2:35 AM1 °C-2 °C81 %994.2 hPa14.5 kmWest (270°)40.7 km/h59.2 km/h0 mmSnowLight Snow
2:51 AM1.7 °C-2.8 °C72 %995.3 hPa16.1 kmWest (270°)33.3 km/h53.8 km/h0 mmSnowLight Snow
3:51 AM-0.6 °C-2.2 °C89 %997 hPa8 kmWest (270°)35.2 km/h50.1 km/h0 mmSnowLight Snow
4:43 AM-1 °C-3 °C86 %996.3 hPa0.8 kmWest (270°)27.8 km/h40.7 km/h0 mmFog-SnowSnow
4:51 AM-0.6 °C-2.2 °C89 %998 hPa0.8 kmWest (270°)35.2 km/h50.1 km/h0 mmFog-SnowSnow
5:22 AM-1 °C-2 °C93 %997.3 hPa6.4 kmWest (270°)24.1 km/h33.3 km/h0.25 mmSnowLight Snow
5:28 AM-1 °C-3 °C86 %997.3 hPa6.4 kmWest (270°)25.9 km/h40.7 km/h0.25 mmSnowLight Snow
5:37 AM-1 °C-5 °C75 %997.6 hPa11.3 kmWest (270°)25.9 km/h42.6 km/h0.25 mmSnowLight Snow
5:51 AM-0.6 °C-5 °C72 %999 hPa6.4 kmWest (260°)31.5 km/h48.1 km/h0.25 mmSnowLight Snow
6:13 AM-2 °C-4 °C86 %998.6 hPa0.8 kmWest (280°)48.1 km/h61.2 km/h0 mmSnowLight Snow
6:51 AM-1.1 °C-6.1 °C69 %1001 hPa8 kmWest (270°)37 km/h59.2 km/h0 mmSnowLight Snow
7:51 AM-2.2 °C-8.3 °C63 %1002.7 hPa11.3 kmWest (270°)33.3 km/h57.5 km/h0 mmSnowLight Snow
8:33 AM-3 °C-8 °C69 %1002.4 hPa11.3 kmWest (270°)33.3 km/h46.3 km/h0 mmSnowLight Snow
8:51 AM-2.8 °C-8.9 °C63 %1004.1 hPa14.5 kmWest (260°)37 km/h55.5 km/h0 mmSnowLight Snow
9:51 AM-3.9 °C-11.1 °C58 %1005.8 hPa14.5 kmWest (260°)24.1 km/h48.1 km/h0 mmSnowLight Snow
10:58 AM-4 °C-9 °C69 %1004.7 hPa4.8 kmWSW (250°)27.8 km/h42.6 km/h0 mmSnowLight Snow
11:17 AM-4 °C-9 °C69 %1005.1 hPa2.4 kmWest (260°)27.8 km/h50.1 km/h0 mmSnowLight Snow
11:21 AM-4 °C-9 °C69 %1005.1 hPa1.6 kmWest (270°)27.8 km/h50.1 km/h0 mmSnowLight Snow
11:37 AM-4 °C-8 °C74 %1005.1 hPa11.3 kmWest (270°)29.6 km/h48.1 km/h0 mmSnowLight Snow
11:51 AM-4.4 °C-8.3 °C75 %1006.8 hPa6.4 kmWest (270°)31.5 km/h50.1 km/h0 mmSnowLight Snow
12:13 PM-4 °C-7 °C80 %1005.4 hPa1.6 kmWSW (250°)18.5 km/h35.2 km/h0 mmSnowLight Snow
12:27 PM-3 °C-8 °C69 %1005.1 hPa11.3 kmWest (270°)31.5 km/h51.8 km/h0 mmSnowLight Snow
12:42 PM-3 °C-10 °C59 %1005.4 hPa1.6 kmWSW (250°)33.3 km/h66.6 km/h0 mmSnowLight Snow
12:51 PM-5 °C-8.3 °C78 %1007.1 hPa11.3 kmWest (270°)35.2 km/h59.2 km/h0 mmSnowLight Snow
1:51 PM-3.9 °C-11.7 °C55 %1007.8 hPa12.9 kmWest (260°)35.2 km/h53.8 km/h0 mmSnowLight Snow
2:51 PM-3.9 °C-10 °C63 %1009.1 hPa16.1 kmWNW (290°)35.2 km/h50.1 km/h0 mmMostly Cloudy
3:51 PM-4.4 °C-12.8 °C53 %1010.2 hPa12.9 kmWSW (250°)33.3 km/h55.5 km/h0 mmSnowLight Snow
4:51 PM-5 °C-10 °C68 %1010.5 hPa16.1 kmWSW (250°)20.4 km/h31.5 km/h0 mmMostly Cloudy
5:51 PM-5 °C-10 °C68 %1010.8 hPa16.1 kmWSW (250°)16.7 km/h35.2 km/h0 mmOvercast
6:51 PM-4.4 °C-8.9 °C71 %1010.8 hPa9.7 kmSW (230°)14.8 km/h0 mmSnowLight Snow
7:51 PM-3.9 °C-8.9 °C69 %1011.2 hPa16.1 kmWSW (240°)25.9 km/h31.5 km/h0 mmOvercast
8:51 PM-4.4 °C-9.4 °C69 %1011.5 hPa14.5 kmWest (260°)16.7 km/h27.8 km/h0 mmSnowLight Snow
9:51 PM-4.4 °C-8.9 °C71 %1011.9 hPa11.3 kmWSW (250°)14.8 km/h29.6 km/h0 mmSnowLight Snow
10:14 PM-4 °C-8 °C74 %1009.5 hPa3.2 kmWest (260°)13 km/h0 mmSnowLight Snow
10:40 PM-5 °C-8 °C80 %1009.8 hPa4.8 kmWest (270°)14.8 km/h0 mmSnowLight Snow
10:51 PM-5 °C-7.8 °C81 %1011.9 hPa4.8 kmWest (280°)16.7 km/h0 mmSnowLight Snow
11:14 PM-5 °C-8 °C80 %1009.5 hPa11.3 kmWSW (250°)13 km/h0 mmSnowLight Snow
11:51 PM-5.6 °C-8.9 °C78 %1011.2 hPa14.5 kmWest (280°)9.3 km/h0 mmMostly Cloudy
Hourly data recorded from KPIT, located 0 kilometers away from New Cumberland, West Virginia







STORIES FROM OUR PARTNERS